Location: Spangle
(47.4302°N, 117.3779°W)
Time: 15:22:56
(UTC+00:00)

Envisat - Pass Details

Date: 25 April 2026
Orbit: 761 x 762 km, 98.4° (Epoch: 15 May)

Event Time Altitude Azimuth Distance (km) Brightness Sun altitude
Rises 09:57:50 0° 20° (NNE) 3,235 7.6 -22.7°
Reaches altitude 10° 10:00:16 10° 27° (NNE) 2,304 6.6 -22.5°
Maximum altitude 10:05:04 41° 98° (E) 1,089 3.9 -22.0°
Enters shadow 10:07:41 24° 154° (SSE) 1,551 4.3 -21.7°
